Вернуться в каталог

YAOGAN-36 01C

АктивенВоенныеVLEO
NORAD 53947·PAYLOAD·🇨🇳 China

Запущен Sep 26, 2022 с Xichang Satellite Launch Center

Loading…

Ближайшие Пролёты (ближайшие 24 часа)

TLE

СвежийSource: Space-Track

Эпоха: Sep 14, 2026, 19:05 UTC

1 53947U 22120E   26257.79520847  .00020042  00000-0  47796-3 0  9993
2 53947  35.0043  20.4938 0003448 269.6890  90.3435 15.40637229221615

Отслеживайте YAOGAN-36 01C в реальном времени с AllMySat

Download on the App Store